TimeEST,TemperatureF,Dew PointF,Humidity,Sea Level PressureIn,VisibilityMPH,Wind Direction,Wind SpeedMPH,Gust SpeedMPH,PrecipitationIn,Events,Conditions,WindDirDegrees,DateUTC
12:15 AM,32.5,18.5,56,29.95,10.0,WNW,12.7,19.6,N/A,,Clear,290,2014-01-15 05:15:00
12:35 AM,32.5,19.2,58,29.94,10.0,West,8.1,-,N/A,,Mostly Cloudy,260,2014-01-15 05:35:00
12:55 AM,32.2,18.9,58,29.95,10.0,West,11.5,17.3,N/A,,Scattered Clouds,260,2014-01-15 05:55:00
1:15 AM,30.0,17.2,59,29.95,10.0,WSW,6.9,-,N/A,,Scattered Clouds,250,2014-01-15 06:15:00
1:35 AM,28.2,16.3,61,29.95,10.0,West,6.9,-,N/A,,Clear,260,2014-01-15 06:35:00
1:55 AM,27.9,15.6,60,29.95,10.0,West,5.8,-,N/A,,Clear,270,2014-01-15 06:55:00
2:15 AM,27.9,15.8,61,29.95,10.0,West,8.1,-,N/A,,Clear,260,2014-01-15 07:15:00
2:35 AM,27.9,15.8,61,29.96,10.0,WSW,9.2,-,N/A,,Scattered Clouds,240,2014-01-15 07:35:00
2:55 AM,29.1,15.8,58,29.97,10.0,West,11.5,-,N/A,,Mostly Cloudy,260,2014-01-15 07:55:00
3:15 AM,29.1,16.7,60,29.97,10.0,SW,5.8,-,N/A,,Overcast,230,2014-01-15 08:15:00
3:35 AM,29.5,16.7,59,29.97,10.0,West,15.0,20.7,N/A,,Overcast,260,2014-01-15 08:35:00
3:55 AM,30.2,16.0,56,29.97,10.0,WSW,11.5,-,N/A,,Overcast,250,2014-01-15 08:55:00
4:15 AM,30.2,15.6,55,29.97,10.0,WSW,12.7,-,N/A,,Overcast,250,2014-01-15 09:15:00
4:35 AM,30.2,14.7,53,29.97,10.0,WSW,10.4,18.4,N/A,,Overcast,250,2014-01-15 09:35:00
4:55 AM,30.2,14.4,52,29.97,10.0,WSW,9.2,-,N/A,,Overcast,250,2014-01-15 09:55:00
5:15 AM,30.2,14.5,52,29.98,10.0,WSW,9.2,-,N/A,,Overcast,250,2014-01-15 10:15:00
5:35 AM,30.2,14.9,53,29.98,10.0,West,17.3,24.2,N/A,,Overcast,270,2014-01-15 10:35:00
5:55 AM,29.3,12.2,49,29.98,10.0,West,10.4,21.9,N/A,,Overcast,270,2014-01-15 10:55:00
6:15 AM,29.1,11.8,49,29.99,10.0,West,6.9,-,N/A,,Overcast,280,2014-01-15 11:15:00
6:35 AM,29.1,12.9,51,29.99,10.0,West,12.7,19.6,N/A,,Overcast,280,2014-01-15 11:35:00
6:55 AM,28.2,12.6,52,30.00,10.0,WNW,10.4,16.1,N/A,,Overcast,290,2014-01-15 11:55:00
7:15 AM,27.9,14.9,58,30.01,10.0,West,9.2,17.3,N/A,Snow,Light Snow,280,2014-01-15 12:15:00
7:35 AM,27.9,16.3,62,30.01,10.0,West,9.2,-,N/A,,Overcast,280,2014-01-15 12:35:00
7:55 AM,27.9,15.4,60,30.02,10.0,WNW,5.8,-,N/A,,Overcast,300,2014-01-15 12:55:00
8:15 AM,27.9,15.3,59,30.03,10.0,West,8.1,-,N/A,,Overcast,270,2014-01-15 13:15:00
8:35 AM,27.9,18.5,68,30.04,4.0,WNW,9.2,-,N/A,Snow,Light Snow,300,2014-01-15 13:35:00
8:55 AM,27.9,19.8,72,30.05,4.0,WNW,9.2,-,N/A,Snow,Light Snow,300,2014-01-15 13:55:00
9:15 AM,27.9,19.0,69,30.06,10.0,WNW,5.8,-,N/A,Snow,Light Snow,300,2014-01-15 14:15:00
9:35 AM,27.9,19.0,69,30.06,7.0,West,5.8,-,N/A,Snow,Light Snow,270,2014-01-15 14:35:00
9:55 AM,27.9,20.7,74,30.08,2.0,West,6.9,-,N/A,Snow,Light Snow,270,2014-01-15 14:55:00
10:15 AM,27.9,20.3,73,30.08,4.0,West,9.2,16.1,N/A,Snow,Light Snow,270,2014-01-15 15:15:00
10:35 AM,27.9,21.7,78,30.09,1.8,NW,5.8,-,N/A,Snow,Light Snow,310,2014-01-15 15:35:00
10:55 AM,27.9,21.0,75,30.09,2.0,NW,8.1,-,N/A,Snow,Light Snow,320,2014-01-15 15:55:00
11:15 AM,27.9,19.4,71,30.09,10.0,NW,8.1,-,N/A,Snow,Light Snow,320,2014-01-15 16:15:00
11:35 AM,27.9,18.0,66,30.09,10.0,WNW,10.4,-,N/A,,Overcast,290,2014-01-15 16:35:00
11:55 AM,27.9,16.2,62,30.08,10.0,NW,9.2,-,N/A,,Overcast,320,2014-01-15 16:55:00
12:15 PM,28.0,14.4,57,30.07,10.0,WNW,8.1,-,N/A,,Overcast,300,2014-01-15 17:15:00
12:35 PM,27.9,14.4,57,30.06,10.0,NW,8.1,-,N/A,,Overcast,320,2014-01-15 17:35:00
12:55 PM,27.9,13.8,56,30.05,10.0,WNW,9.2,-,N/A,,Overcast,290,2014-01-15 17:55:00
1:15 PM,27.9,14.7,58,30.05,10.0,NW,10.4,-,N/A,Snow,Light Snow,310,2014-01-15 18:15:00
1:35 PM,27.9,14.7,58,30.05,10.0,West,6.9,-,N/A,Snow,Light Snow,280,2014-01-15 18:35:00
1:55 PM,28.6,13.6,54,30.05,10.0,West,10.4,18.4,N/A,,Overcast,280,2014-01-15 18:55:00
2:15 PM,27.9,13.1,54,30.05,10.0,West,10.4,17.3,N/A,,Overcast,280,2014-01-15 19:15:00
2:35 PM,27.9,13.6,55,30.05,10.0,WNW,8.1,18.4,N/A,Snow,Light Snow,290,2014-01-15 19:35:00
2:55 PM,27.9,15.3,59,30.05,10.0,WNW,10.4,-,N/A,Snow,Light Snow,290,2014-01-15 19:55:00
3:15 PM,27.9,14.9,58,30.06,10.0,West,11.5,-,N/A,Snow,Light Snow,270,2014-01-15 20:15:00
3:35 PM,27.9,16.0,61,30.06,10.0,West,10.4,-,N/A,Snow,Light Snow,260,2014-01-15 20:35:00
3:55 PM,27.9,12.9,54,30.07,10.0,West,9.2,-,N/A,,Overcast,270,2014-01-15 20:55:00
4:15 PM,27.9,11.8,51,-9999,10.0,WNW,6.9,-,N/A,,Overcast,290,2014-01-15 21:15:00
4:35 PM,27.9,12.0,52,30.07,10.0,WNW,8.1,-,N/A,,Overcast,290,2014-01-15 21:35:00
4:55 PM,27.9,13.1,54,30.08,10.0,NW,9.2,-,N/A,,Overcast,310,2014-01-15 21:55:00
5:15 PM,27.9,13.5,55,30.09,10.0,WNW,8.1,-,N/A,,Overcast,290,2014-01-15 22:15:00
5:35 PM,27.9,13.8,56,30.09,10.0,WNW,9.2,17.3,N/A,,Overcast,300,2014-01-15 22:35:00
5:55 PM,27.9,14.9,58,30.09,10.0,WNW,10.4,-,N/A,,Overcast,300,2014-01-15 22:55:00
6:15 PM,27.9,15.8,61,30.10,10.0,WNW,10.4,-,N/A,Snow,Light Snow,300,2014-01-15 23:15:00
6:35 PM,25.3,14.0,62,30.11,10.0,WNW,10.4,-,N/A,,Overcast,300,2014-01-15 23:35:00
6:55 PM,25.3,14.0,62,30.11,10.0,WNW,6.9,-,N/A,,Overcast,290,2014-01-15 23:55:00
7:15 PM,25.3,14.7,64,30.10,10.0,NW,5.8,-,N/A,,Mostly Cloudy,310,2014-01-16 00:15:00
7:35 PM,22.8,13.1,66,30.10,10.0,NW,4.6,-,N/A,,Scattered Clouds,310,2014-01-16 00:35:00
7:55 PM,21.4,12.4,68,30.11,10.0,West,3.5,-,N/A,,Clear,280,2014-01-16 00:55:00
8:15 PM,21.6,11.8,66,30.10,10.0,Calm,Calm,-,N/A,,Clear,0,2014-01-16 01:15:00
8:35 PM,21.6,11.7,66,30.10,10.0,WSW,3.5,-,N/A,,Clear,240,2014-01-16 01:35:00
8:55 PM,21.2,13.3,72,30.11,10.0,West,3.5,-,N/A,,Clear,270,2014-01-16 01:55:00
9:15 PM,20.3,13.1,74,30.11,10.0,Calm,Calm,-,N/A,,Scattered Clouds,0,2014-01-16 02:15:00
9:35 PM,21.2,14.7,76,30.11,10.0,Calm,Calm,-,N/A,,Overcast,0,2014-01-16 02:35:00
9:55 PM,22.8,14.4,70,30.10,10.0,West,3.5,-,N/A,,Overcast,280,2014-01-16 02:55:00
10:15 PM,22.8,13.8,68,30.10,10.0,West,3.5,-,N/A,,Overcast,260,2014-01-16 03:15:00
10:35 PM,22.8,13.8,68,30.10,10.0,WSW,4.6,-,N/A,,Overcast,250,2014-01-16 03:35:00
10:55 PM,21.4,12.7,69,30.09,10.0,West,5.8,-,N/A,,Mostly Cloudy,260,2014-01-16 03:55:00
11:15 PM,20.7,12.7,71,30.08,10.0,WSW,4.6,-,N/A,,Scattered Clouds,250,2014-01-16 04:15:00
11:35 PM,20.3,13.1,74,30.07,10.0,WSW,3.5,-,N/A,,Mostly Cloudy,250,2014-01-16 04:35:00
11:55 PM,20.3,13.1,74,30.07,10.0,Calm,Calm,-,N/A,,Scattered Clouds,0,2014-01-16 04:55:00